Regional Weather Roundup
Issued by NWS

Home | Current Version | Previous Version | Text Only | Print | Product List | Glossary Off
Versions: 1 2 3 4 5 6 7 8 9 10 11 12 13 14 15 16 17 18 19 20 21 22 23 24 25 26 27 28 29 30 31 32 33 34 35 36 37 38 39 40 41 42 43 44 45 46 47 48 49 50

000
ASUS45 KSLC 222210
RWRUT

UTAH REGIONAL WEATHER ROUNDUP
NATIONAL WEATHER SERVICE SALT LAKE CITY UT
400 PM MDT TUE JUL 22 2014

UTZ001>011-023>025-222300-

NORTHERN UTAH

CITY           SKY/WX    TMP DP  RH WIND       PRES   REMARKS
HILL AFB       SUNNY     93  39  15 VRB5      30.21F
LOGAN          NOT AVBL
OGDEN          SUNNY     93  38  14 NW8       30.17F
PROVO AIRPORT  SUNNY     95  37  13 VRB5      30.18F HX  90
SALT LAKE CITY MOSUNNY   97  34  11 NE9       30.13F HX  91
VERNAL         SUNNY     94  26   9 SE9       30.24F
WENDOVER       SUNNY     91  39  16 E8G17     30.15F
HEBER CITY     SUNNY     97  28   9 W9        30.24F HX  91
WEST JORDAN    SUNNY     99  46  16 E14       30.17F HX  95

$$

UTZ012>022-026-027-222300-

SOUTHERN UTAH

CITY           SKY/WX    TMP DP  RH WIND       PRES   REMARKS
BRYCE CANYON   SUNNY     86  28  12 SE14G23   30.44S
CEDAR CITY     SUNNY     95  30  10 SW18G29   30.25F
MILFORD        SUNNY     98  26   7 SW20G36   30.18F HX  91
MOAB/CYNLANDS  SUNNY    100  21   6 N7        30.15F HX  93
PRICE          SUNNY     95  17   6 S7G22     30.30F
ST GEORGE      CLEAR    102  37  10 NW7G17    30.04F HX  96
KANAB            N/A     97  34  11 SW5       30.22F HX  91

$$

REGIONAL REPORTS     COLORADO/ARIZONA

CITY           SKY/WX    TMP DP  RH WIND       PRES   REMARKS
CRAIG, CO      SUNNY     95  22   7 VRB5      30.33F
GRAND JUNCTION SUNNY     98  28   8 W12       30.18F HX  92
RIFLE          SUNNY     97  12   4 CALM      30.25F HX  90
MONTROSE       SUNNY     96  24   7 N9        30.27F HX  90
CORTEZ         SUNNY     98  24   7 SW12      30.25F HX  91
PAGE, AZ       SUNNY    103  31   8 NW9       30.13F HX  96
GRAND CANYON   MOSUNNY   88  31  13 VRB5G18   30.36F
KINGMAN        SUNNY    100  22   6 SW14G21   30.11S HX  93
FLAGSTAFF      PTSUNNY   84  38  19 VRB5      30.40F HAZE

$$

REGIONAL REPORTS    NEVADA/IDAHO/WYOMING

CITY           SKY/WX    TMP DP  RH WIND       PRES   REMARKS
LAS VEGAS, NV  MOSUNNY  106  24   5 SE8       29.93F HX  98
ELY            SUNNY     91  18   7 S16G25    30.27F
ELKO           SUNNY     93  26   9 VRB6      30.15F
POCATELLO, ID  MOSUNNY   92  51  24 NW13      30.19F
BURLEY         SUNNY     91  49  23 N9        30.12F
EVANSTON, WY   SUNNY     87  32  14 W13       30.40F
ROCK SPRINGS   SUNNY     91  21   8 W13G20    30.37S

$$



USA.gov is the U.S. government's official web portal to all federal, state and local government web resources and services.